User: anonymous
Location: Clinton NY
(43.0598°N, 75.3602°W)
Time: 07:03:57
(UTC-04:00)
Language:

Iridium 42 - Orbit

View from above orbital plane
View from above orbital plane
View from above satellite
View from above satellite

Ground track
Ground track

The orbit data is extracted from the following two-line orbital elements,

1 25077U 97077A   14239.09021630  .00000105  00000-0  30458-4 0  9272
2 25077 086.3932 090.4931 0002074 101.9865 258.1563 14.34221454875249
Epoch (UTC): 27 August 2014 02:09:54
Eccentricity: 0.0002074
inclination: 86.3932°
perigee height: 776 km
apogee height: 779 km
right ascension of ascending node: 90.4931°
argument of perigee: 101.9865°
revolutions per day: 14.34221454
mean anomaly at epoch: 258.1563°
orbit number at epoch: 87524

The dashed part of the orbit path shows where the satellite is in the earth's shadow,  

DLR